STARLINK-4591, 53607

Orbit data source: Space-Track

STARLINK-4591, 53607 is a payload satellite owned by SpaceX/Seattle (US) in LEO that was launched on Sun, 28 Aug 2022 UTC via an FALCON 9 launch vehicle from the Air Force Eastern Test Range (AFETR). Payload-class satellites include a variety of spacecraft equipped with specific instruments for various scientific and technological missions. These include communications satellites like Starlink; space stations such as the ISS; scientific satellites like the Hubble; Earth observation satellites from companies like Planet Labs, Umbra, and HawkEye 360; GPS; miniature CubeSats for education and research; and military/defense satellites.

Loading next visibility...
Identifier
53607, 2022-104V
Orbit
LEO
Country
Flag of USUS
Related business
Manufacturer
SpaceX/Seattle
Mission
Operational Commercial Communications
Bus & Motor
STARLINK, Unknown motor
Mass
300 kg wet, ~290 kg dry
Launch date (UTC)
2022-08-28 (3 years ago)
Launch vehicle
FALCON 9
Launch site
Air Force Eastern Test Range (AFETR)
Object type
Payload
Rocket body
Debris
Shape & HBR
Box + 1 Pan, 10.1 m
Radar Cross Section
13.562 m², Large (>1 m²)

Expand to show TLE details & history
Last TLE update: 22 hours ago

TLE from 22 hours ago
0 STARLINK-4591
1 53607U 22104V   26036.36009868  .00000333  00000-0  39039-4 0  9994
2 53607  53.2194  24.3057 0001562  86.8935 273.2236 15.08841686190801
Epoch: 2026-02-05T08:38Z
TLE epoch observation values (Epoch: 2026-02-05T08:38:32.525Z)
Latitude
-0.00004°
Longitude
119.1567°
Altitude
540.575 km
Speed
7.593 km/s
True Right ascension
01h 37m 13s
True Declination
0° 00' 00"
Sunlit
Object was in daylight at epoch
Visualization orbit readout
Latitude
Unknown
Longitude
Unknown
Altitude
Unknown
Speed
Unknown
Apparent Right ascension
Unknown
Apparent Declination
Unknown
Sunlit
N/A
Visualization observer readout
Local Sidereal Time
09:12:49
Azimuth
Unknown
Elevation
Unknown
Doppler factor
Unknown
Orbital elements
Apogee altitude
541.063 km
Perigee altitude
538.902 km
Semi-major axis
6,918.12 km
Eccentricity
0.00016
Inclination
53.2194°
RAAN
24.3057°
Arg. of periapsis
86.8935°
True anomaly
273.20573°
Mean anomaly
273.2236°
Eccentric anomaly
273.21466°
Mean motion
3.77191 °/min
Orbital period
95.44 mins
BSTAR
0.000039039
Loading maneuver chart data...
Computing Atmospheric mass density...
Loading historical data...
Loading historical data...
Loading historical data...
Loading historical data...
Loading historical data...
Loading historical data...
Loading historical data...

Documentation

Showing up to 5 results
|